[[{"header":{"parameterUnit":"m.s-1","parameterCategory":1,"la1":30.2991,"la2":30.254,"lo1":-89.0895,"lo2":-89.0444,"dy":0.0017,"dx":0.0017,"nx":28,"ny":28,"refTime":"2025-11-11T09:00:00:Z","depth":0,"parameterNumber":2,"parameterNumberName":"U-component_of_WINDS"},"data":[0,0,0,0,0,0,0,0,0,0,0,0,0,0,0,0,0,0,0,0,0,0,0,0,0,0,0,0,0,0,0,0,0,0,0,0,0,0,0,0,0,0,0,0,0,0,0,0,0,0,0,0,0,0,0,0,0,0,-2.7427,-2.7429,0,-2.7586,-2.7588,-2.759,-2.7516,-2.7512,-2.7508,-2.7504,-2.767,-2.7678,-2.7686,0,0,0,0,0,0,0,0,0,0,0,0,0,-2.7058,-2.7065,-2.7427,-2.7429,-2.7431,-2.7586,-2.7588,-2.7591,-2.7516,-2.7511,-2.7507,-2.7502,-2.7667,-2.7677,-2.7687,0,0,0,0,0,0,0,0,0,0,0,0,0,-2.7218,-2.7068,-2.7426,-2.7412,-2.7413,-2.7586,-2.7588,-2.7591,-2.7517,-2.7511,-2.7505,-2.75,-2.7664,-2.7676,-2.7688,-2.7885,0,0,-2.7725,-2.7731,0,0,0,0,0,0,0,0,-2.7209,-2.7232,-2.7412,-2.7414,-2.7414,-2.7525,-2.7519,-2.769,-2.7519,-2.7478,-2.7504,-2.7497,-2.7627,-2.7642,-2.7685,-2.7892,-2.79,-2.7726,-2.7734,-2.7739,-2.7743,0,0,0,0,0,0,0,-2.7198,-2.7225,-2.749,-2.7415,-2.7416,-2.7398,-2.7414,-2.7551,-2.7584,-2.7481,-2.7476,-2.7496,-2.7626,-2.7673,-2.7688,-2.7902,-2.7726,-2.7737,-2.7745,-2.7749,-2.8278,-2.8284,0,0,0,0,0,0,-2.7187,-2.7216,-2.7485,-2.7495,-2.7295,-2.741,-2.7428,-2.7496,-2.7583,-2.759,-2.7501,-2.7492,-2.7655,-2.7674,-2.7694,-2.7929,-2.7739,-2.7751,-2.7758,-2.8271,-2.8279,-2.8286,0,0,0,0,0,0,-2.718,-2.7212,-2.7478,-2.7354,-2.7386,-2.7423,-2.7499,-2.7502,-2.7549,-2.7597,-2.7603,-2.7543,-2.7651,-2.7676,-2.7837,-2.7934,-2.7756,-2.7767,-2.8263,-2.8274,-2.8283,-2.8402,0,0,0,0,0,0,-2.717,-2.721,-2.7285,-2.7356,-2.7393,-2.762,-2.7505,-2.7509,-2.757,-2.756,-2.7639,-2.7646,-2.7648,-2.7819,-2.785,-2.7948,-2.7777,-2.8255,-2.8268,-2.828,-2.839,-2.8415,-2.8437,0,0,0,0,0,-2.7157,-2.7313,-2.7289,-2.7322,-2.7488,-2.7625,-2.7646,-2.7646,-2.7578,-2.7654,-2.7685,-2.7643,-2.7918,-2.7836,-2.787,-2.7973,-2.8249,-2.8264,-2.8279,-2.8379,-2.841,-2.8436,0,0,0,0,0,0,-2.7253,-2.7322,-2.7296,-2.748,-2.7547,-2.7612,-2.7708,-2.7679,-2.7767,-2.7753,-2.7749,-2.7768,-2.7934,-2.7969,-2.7877,-2.8167,-2.8073,-2.8096,-2.8138,-2.8168,-2.8191,-2.8179,-2.7787,0,0,0,0,0,-2.7296,-2.7401,-2.7456,-2.7613,-2.7647,-2.7672,-2.7732,-2.7725,-2.7795,-2.7823,-2.7866,-2.7935,-2.8037,-2.8104,-2.8201,-2.8394,-2.841,-2.8482,-2.8505,-2.8524,-2.8543,-2.8647,-2.868,-2.8336,-2.8336,-2.8335,0,0,-2.7385,-2.7436,-2.7503,-2.7633,-2.7684,-2.7794,-2.7697,-2.7817,-2.7897,-2.7841,-2.7995,-2.8029,-2.8106,-2.8284,-2.8365,-2.8319,-2.8642,-2.8543,-2.8558,-2.8567,-2.8666,-2.8699,-2.8728,-2.8346,-2.8344,-2.8343,0,0,-2.7604,-2.7653,-2.7788,-2.7841,-2.7919,-2.7934,-2.7967,-2.8036,-2.8056,-2.821,-2.817,-2.8267,-2.8443,-2.8499,-2.855,-2.8789,-2.8754,-2.882,-2.8943,-2.9044,-2.9071,-2.9095,-2.918,-2.921,-2.8839,-2.884,-2.884,0,-2.7705,-2.7868,-2.7862,-2.7985,-2.8043,-2.7996,-2.8133,-2.8185,-2.8291,-2.8333,-2.828,-2.8498,-2.8547,-2.8737,-2.8795,-2.8838,-2.8875,-2.8812,-2.9068,-2.9092,-2.9114,-2.9194,-2.9226,-2.8847,-2.8846,-2.8846,-2.8845,0,-2.7988,-2.8101,-2.8202,-2.8304,-2.8374,-2.8503,-2.8517,-2.8589,-2.8576,-2.8596,-2.8754,-2.881,-2.8917,-2.8961,-2.895,-2.9149,-2.9118,-2.9067,-2.8972,-2.9154,-2.923,-2.9261,-2.8858,-2.8855,-2.8853,-2.8851,0,0,-2.8273,-2.8369,-2.8406,-2.8452,-2.8534,-2.8621,-2.8748,-2.8852,-2.8912,-2.8987,-2.9093,-2.9242,-2.9195,-2.9253,-2.9248,-2.9337,-2.9521,-2.9274,-2.9276,-2.9318,-2.9743,-2.9781,-2.9817,-2.9498,-2.9504,-2.9509,-2.9737,0,-2.8497,-2.8719,-2.8717,-2.8923,-2.9027,-2.8983,-2.9093,-2.9156,-2.9178,-2.927,-2.9295,-2.94,-2.9329,-2.9364,-2.945,-2.9481,-2.9607,-2.9464,-2.9597,-2.9602,-2.9579,-2.9857,-2.9898,-3.011,-2.9766,-2.9771,-2.9775,0,-2.8788,-2.8871,-2.9087,-2.9152,-2.9196,-2.9295,-2.9389,-2.9477,-2.9547,-2.9557,-2.9622,-2.9602,-2.9731,-2.9632,-2.981,-2.9713,-2.9767,-2.979,-2.9798,-2.981,-2.9699,-2.9877,-3.0178,-3.021,-2.9821,-2.9818,-2.9814,0,-2.8974,-2.9139,-2.9289,-2.9329,-2.941,-2.9481,-2.9518,-2.9581,-2.9643,-2.9725,-2.9764,-2.9861,-2.9914,-2.9989,-2.9996,-2.9923,-3.0175,-3.0077,-3.0187,-3.0187,-3.0242,-3.0238,-3.0556,-3.0277,-3.0277,-3.0276,-3.0275,0,-2.9224,-2.9358,-2.9373,-2.9466,-2.9614,-2.961,-2.9757,-2.9787,-2.9844,-2.9941,-2.9909,-3.0002,-3.0005,-3.01,-3.0106,-3.0252,-3.0276,-3.0287,-3.0288,-3.029,-3.0289,-3.0326,-3.0311,-3.0285,-3.0283,-3.0281,-3.028,0,-2.9457,-2.9473,-2.9633,-2.9695,-2.9714,-2.9821,-2.9874,-2.9962,-2.998,-3.0104,-3.0133,-3.0163,-3.0272,-3.0286,-3.0414,-3.0418,-3.0593,-3.0578,-3.057,-3.0567,-3.0676,-3.0666,-3.1029,-3.1076,-3.0767,-3.077,-3.0772,0,-2.9615,-2.9717,-2.979,-2.9852,-2.9892,-2.9994,-3.0056,-3.0056,-3.0123,-3.0209,-3.0286,-3.0392,-3.0477,-3.0653,-3.0687,-3.0784,-3.077,-3.0891,-3.0785,-3.0784,-3.0772,-3.0765,-3.0775,-3.0912,-3.0915,-3.0918,-3.092,0,-2.9895,-2.9897,-2.9988,-3.0082,-3.0157,-3.0231,-3.0301,-3.0354,-3.0363,-3.0439,-3.0549,-3.0615,-3.0745,-3.085,-3.0946,-3.0984,-3.0954,-3.0953,-3.0983,-3.0987,-3.0978,-3.0984,-3.0625,-3.0945,-3.0942,-3.094,-3.0939,-3.0938,-3.0095,-3.0182,-3.0247,-3.0349,-3.0401,-3.0466,-3.0552,-3.058,-3.0673,-3.0778,-3.0772,-3.0894,-3.096,-3.1085,-3.113,-3.1225,-3.1186,-3.123,-3.1241,-3.1252,-3.1263,-3.0963,-3.1243,-3.1242,-3.1242,-3.1241,-3.1241,0,-3.0372,-3.0411,-3.0505,-3.0602,-3.0683,-3.0646,-3.0721,-3.079,-3.0898,-3.0961,-3.1045,-3.1172,-3.1273,-3.1314,-3.1413,-3.1482,-3.147,-3.1508,-3.1503,-3.1512,-3.1293,-3.1256,-3.1515,-3.1515,-3.1515,-3.1515,-3.1515,-3.1515,-3.0525,-3.0671,-3.0681,-3.0852,-3.0891,-3.1009,-3.1055,-3.1115,-3.1165,-3.1308,-3.1392,-3.1417,-3.1472,-3.1575,-3.1666,-3.1675,-3.1713,-3.1757,-3.176,-3.1555,-3.1527,-3.1501,-3.1466,-3.1765,-3.1766,-3.1971,-3.1973,-3.1974]},{"header":{"parameterUnit":"m.s-1","parameterCategory":1,"la1":30.2991,"la2":30.254,"lo1":-89.0895,"lo2":-89.0444,"dy":0.0017,"dx":0.0017,"nx":28,"ny":28,"refTime":"2025-11-11T09:00:00:Z","depth":0,"parameterNumber":3,"parameterNumberName":"V-component_of_WINDS"},"data":[0,0,0,0,0,0,0,0,0,0,0,0,0,0,0,0,0,0,0,0,0,0,0,0,0,0,0,0,0,0,0,0,0,0,0,0,0,0,0,0,0,0,0,0,0,0,0,0,0,0,0,0,0,0,0,0,0,0,-5.9053,-5.9054,0,-5.9177,-5.9179,-5.918,-5.9083,-5.9079,-5.9075,-5.9071,-5.9193,-5.92,-5.9207,0,0,0,0,0,0,0,0,0,0,0,0,0,-5.8726,-5.8732,-5.9053,-5.9055,-5.9056,-5.9177,-5.9179,-5.918,-5.9084,-5.9079,-5.9073,-5.9069,-5.9191,-5.9199,-5.9208,0,0,0,0,0,0,0,0,0,0,0,0,0,-5.8861,-5.8735,-5.9053,-5.9022,-5.9021,-5.9177,-5.9179,-5.9181,-5.9085,-5.9078,-5.9072,-5.9066,-5.9188,-5.9198,-5.9209,-5.9399,0,0,-5.9241,-5.9246,0,0,0,0,0,0,0,0,-5.8853,-5.8873,-5.9025,-5.9025,-5.9023,-5.9108,-5.9108,-5.9254,-5.9086,-5.906,-5.9071,-5.9063,-5.917,-5.9181,-5.9218,-5.9405,-5.941,-5.9242,-5.9249,-5.9253,-5.9256,0,0,0,0,0,0,0,-5.8844,-5.8867,-5.9102,-5.9028,-5.9027,-5.9001,-5.9013,-5.9135,-5.9148,-5.9062,-5.9055,-5.9072,-5.9168,-5.9208,-5.922,-5.9412,-5.9242,-5.9252,-5.9258,-5.9262,-5.9759,-5.9765,0,0,0,0,0,0,-5.8838,-5.886,-5.9098,-5.9106,-5.8921,-5.9012,-5.9025,-5.9087,-5.9147,-5.915,-5.9077,-5.9067,-5.9193,-5.9208,-5.9224,-5.945,-5.9253,-5.9263,-5.927,-5.9752,-5.976,-5.9767,0,0,0,0,0,0,-5.8832,-5.8861,-5.9093,-5.8981,-5.9009,-5.9024,-5.9094,-5.9093,-5.9133,-5.9158,-5.9159,-5.9116,-5.9189,-5.9209,-5.9356,-5.9453,-5.9268,-5.9278,-5.9744,-5.9754,-5.9764,-5.9903,0,0,0,0,0,0,-5.8823,-5.8859,-5.8933,-5.8983,-5.9015,-5.9225,-5.91,-5.91,-5.9152,-5.914,-5.9195,-5.9198,-5.9185,-5.9341,-5.9367,-5.9464,-5.9286,-5.9735,-5.9749,-5.9761,-5.989,-5.9917,-5.994,0,0,0,0,0,-5.8812,-5.8967,-5.8937,-5.8967,-5.9108,-5.9231,-5.9249,-5.9233,-5.9161,-5.9234,-5.9249,-5.9196,-5.9438,-5.9357,-5.9385,-5.9487,-5.9729,-5.9745,-5.976,-5.9879,-5.9912,-5.9939,0,0,0,0,0,0,-5.8926,-5.8973,-5.8941,-5.9117,-5.9171,-5.9215,-5.9307,-5.9268,-5.9342,-5.9327,-5.9302,-5.9315,-5.947,-5.9493,-5.9402,-5.9673,-5.9572,-5.9593,-5.9653,-5.9684,-5.9708,-5.9699,-5.9295,0,0,0,0,0,-5.8972,-5.907,-5.9104,-5.9257,-5.9286,-5.9292,-5.9345,-5.9327,-5.9381,-5.9403,-5.9429,-5.9482,-5.957,-5.9628,-5.971,-5.9893,-5.9902,-5.9977,-6.0001,-6.0022,-6.0041,-6.0137,-6.017,-5.9818,-5.9817,-5.9817,0,0,-5.9068,-5.9105,-5.9168,-5.9281,-5.932,-5.942,-5.9312,-5.9422,-5.9495,-5.9419,-5.956,-5.9581,-5.9638,-5.9804,-5.9878,-5.9828,-6.014,-6.0041,-6.0057,-6.0065,-6.0156,-6.0189,-6.0219,-5.9828,-5.9826,-5.9824,0,0,-5.9293,-5.9332,-5.9462,-5.9504,-5.9566,-5.9569,-5.96,-5.965,-5.9661,-5.9802,-5.9747,-5.9832,-5.9984,-6.0027,-6.0068,-6.0308,-6.0261,-6.0335,-6.0465,-6.0559,-6.0587,-6.0611,-6.0695,-6.0726,-6.0354,-6.0354,-6.0355,0,-5.9404,-5.9553,-5.9534,-5.9649,-5.9698,-5.9636,-5.9766,-5.9807,-5.9892,-5.9927,-5.987,-6.0059,-6.0093,-6.0266,-6.0325,-6.0361,-6.0394,-6.0329,-6.0585,-6.0609,-6.0632,-6.0711,-6.0743,-6.0363,-6.0362,-6.0361,-6.036,0,-5.9685,-5.979,-5.9887,-5.9972,-6.0033,-6.0155,-6.0152,-6.0216,-6.0193,-6.0201,-6.0344,-6.0383,-6.0471,-6.0511,-6.0489,-6.0681,-6.0648,-6.0589,-6.0486,-6.0674,-6.0749,-6.0779,-6.0375,-6.0372,-6.037,-6.0367,0,0,-5.9987,-6.0059,-6.0095,-6.0132,-6.0195,-6.0274,-6.0392,-6.0479,-6.0533,-6.0593,-6.069,-6.082,-6.0765,-6.0812,-6.0794,-6.0877,-6.1062,-6.0807,-6.0808,-6.0852,-6.1274,-6.1318,-6.1354,-6.1032,-6.1037,-6.1042,-6.1269,0,-6.0214,-6.0422,-6.0407,-6.0601,-6.0696,-6.0637,-6.0739,-6.0787,-6.0798,-6.0878,-6.0889,-6.0981,-6.0902,-6.093,-6.1009,-6.1023,-6.1147,-6.1007,-6.112,-6.1124,-6.1107,-6.1393,-6.144,-6.1653,-6.1298,-6.1303,-6.1307,0,-6.0507,-6.0579,-6.0783,-6.083,-6.0869,-6.0962,-6.1039,-6.1118,-6.117,-6.1172,-6.1224,-6.1192,-6.1308,-6.1204,-6.1363,-6.1268,-6.1313,-6.1326,-6.1334,-6.1344,-6.1226,-6.1409,-6.172,-6.1752,-6.1352,-6.1349,-6.1346,0,-6.0705,-6.0852,-6.0993,-6.1026,-6.1085,-6.1151,-6.1178,-6.1225,-6.1278,-6.1345,-6.1379,-6.1458,-6.1502,-6.1563,-6.1552,-6.1477,-6.1714,-6.1609,-6.1717,-6.1717,-6.1769,-6.1766,-6.2091,-6.18,-6.1799,-6.1799,-6.1798,0,-6.096,-6.1087,-6.1082,-6.1169,-6.1309,-6.1289,-6.1427,-6.1446,-6.1488,-6.1576,-6.1529,-6.1612,-6.1593,-6.1675,-6.1667,-6.1799,-6.1819,-6.1822,-6.1818,-6.1826,-6.1825,-6.1855,-6.1839,-6.1807,-6.1805,-6.1804,-6.1802,0,-6.1205,-6.1207,-6.1357,-6.14,-6.1413,-6.1514,-6.155,-6.1631,-6.1637,-6.1748,-6.1773,-6.1782,-6.1876,-6.1871,-6.1977,-6.1971,-6.2134,-6.2113,-6.2117,-6.2112,-6.222,-6.221,-6.2575,-6.2621,-6.2301,-6.2304,-6.2306,0,-6.1367,-6.1464,-6.1517,-6.1573,-6.1605,-6.1696,-6.175,-6.1733,-6.1791,-6.1857,-6.1929,-6.2019,-6.209,-6.2241,-6.2256,-6.2336,-6.2317,-6.2439,-6.2328,-6.2333,-6.2317,-6.2311,-6.232,-6.2461,-6.2464,-6.2467,-6.247,0,-6.1655,-6.1651,-6.1731,-6.1812,-6.1878,-6.194,-6.1997,-6.2045,-6.2034,-6.2101,-6.2197,-6.2252,-6.236,-6.2448,-6.2525,-6.255,-6.2508,-6.2504,-6.2533,-6.2542,-6.254,-6.2541,-6.2175,-6.2496,-6.2493,-6.2491,-6.249,-6.2489,-6.1863,-6.1945,-6.1995,-6.2086,-6.2127,-6.2181,-6.2259,-6.2274,-6.2355,-6.2442,-6.2427,-6.2534,-6.2581,-6.268,-6.2712,-6.2794,-6.275,-6.2793,-6.2804,-6.2814,-6.2826,-6.2527,-6.2808,-6.2807,-6.2807,-6.2806,-6.2805,0,-6.2147,-6.2176,-6.2259,-6.2341,-6.2411,-6.2367,-6.2427,-6.2489,-6.2584,-6.2633,-6.2703,-6.2812,-6.2898,-6.2919,-6.3001,-6.3062,-6.3045,-6.3084,-6.3079,-6.3085,-6.2861,-6.2827,-6.3097,-6.3097,-6.3096,-6.3096,-6.3096,-6.3096,-6.2303,-6.2439,-6.2441,-6.2596,-6.2624,-6.273,-6.2768,-6.2816,-6.2855,-6.298,-6.3051,-6.3065,-6.3102,-6.3186,-6.3261,-6.3265,-6.3297,-6.3344,-6.334,-6.313,-6.3101,-6.3073,-6.3041,-6.3351,-6.3351,-6.3557,-6.3559,-6.356]}]]